QPF
0.00 0.01 0.01 0.05 0.19 0.25 0.19 0.10 0.06 0.04 0.03 0.02 0.01 0.01 0.01 0.01 0.02 0.04 0.06 0.07 0.07 0.05 0.04 0.03 0.02 0.02 0.01 0.01 0.00 0.00 0.00 0.00 0.00 0.00 0.00 0.00 0.00 0.00 0.00 0.00 0.00 0.00 0.00
0.00 0.00 0.00 0.02 0.09 0.14 0.12 0.09 0.10 0.10 0.09 0.08 0.06 0.05 0.05 0.06 0.09 0.13 0.14 0.14 0.11 0.08 0.06 0.04 0.03 0.02 0.01 0.01 0.00 0.00 0.00 0.00 0.00 0.00 0.00 0.00 0.00 0.00 0.00 0.00 0.00 0.00 0.00
0.00 0.00 0.00 0.01 0.05 0.10 0.14 0.13 0.16 0.20 0.23 0.24 0.20 0.17 0.17 0.19 0.22 0.23 0.22 0.18 0.13 0.09 0.05 0.04 0.03 0.02 0.01 0.00 0.00 0.00 0.00 0.00 0.00 0.00 0.00 0.00 0.00 0.00 0.00 0.00 0.00 0.00 0.00
0.00 0.00 0.00 0.01 0.02 0.05 0.10 0.15 0.21 0.33 0.48 0.60 0.61 0.51 0.41 0.37 0.35 0.33 0.28 0.21 0.14 0.09 0.06 0.05 0.03 0.02 0.00 0.00 0.00 0.00 0.00 0.00 0.00 0.00 0.00 0.00 0.00 0.00 0.00 0.00 0.00 0.00 0.00
0.00 0.00 0.01 0.02 0.05 0.09 0.16 0.23 0.32 0.46 0.62 0.69 0.73 0.65 0.51 0.45 0.42 0.39 0.29 0.18 0.11 0.08 0.06 0.04 0.04 0.02 0.01 0.00 0.00 0.00 0.00 0.00 0.00 0.00 0.00 0.00 0.00 0.00 0.00 0.00 0.00 0.00 0.00
0.00 0.00 0.01 0.05 0.11 0.18 0.25 0.32 0.37 0.46 0.55 0.55 0.50 0.43 0.41 0.38 0.34 0.27 0.19 0.12 0.08 0.05 0.04 0.03 0.03 0.01 0.00 0.00 0.00 0.00 0.00 0.00 0.00 0.00 0.00 0.00 0.00 0.00 0.00 0.00 0.00 0.00 0.00
0.00 0.01 0.04 0.09 0.15 0.22 0.27 0.28 0.30 0.29 0.29 0.29 0.28 0.24 0.23 0.19 0.16 0.14 0.11 0.07 0.04 0.03 0.02 0.02 0.01 0.01 0.00 0.00 0.00 0.00 0.00 0.00 0.00 0.00 0.00 0.00 0.00 0.00 0.00 0.00 0.00 0.00 0.00
0.02 0.04 0.07 0.11 0.17 0.21 0.22 0.21 0.17 0.13 0.09 0.09 0.11 0.12 0.10 0.09 0.08 0.06 0.04 0.03 0.02 0.01 0.01 0.00 0.00 0.00 0.00 0.00 0.00 0.00 0.00 0.00 0.00 0.00 0.00 0.00 0.00 0.00 0.00 0.00 0.00 0.00 0.00
0.05 0.09 0.12 0.15 0.17 0.17 0.15 0.10 0.06 0.05 0.04 0.03 0.04 0.04 0.04 0.05 0.04 0.03 0.02 0.02 0.01 0.01 0.00 0.00 0.00 0.00 0.00 0.00 0.00 0.00 0.00 0.00 0.00 0.00 0.00 0.00 0.00 0.00 0.00 0.00 0.01 0.01 0.01
0.06 0.10 0.13 0.15 0.14 0.11 0.08 0.06 0.04 0.03 0.02 0.02 0.01 0.02 0.02 0.03 0.03 0.02 0.01 0.01 0.01 0.00 0.00 0.00 0.00 0.00 0.00 0.00 0.00 0.00 0.00 0.00 0.00 0.00 0.00 0.00 0.00 0.01 0.01 0.01 0.01 0.01 0.02
0.09 0.13 0.16 0.14 0.11 0.08 0.06 0.04 0.03 0.01 0.01 0.01 0.02 0.02 0.03 0.02 0.02 0.01 0.01 0.01 0.00 0.00 0.00 0.00 0.00 0.00 0.00 0.00 0.00 0.00 0.00 0.00 0.00 0.01 0.01 0.00 0.00 0.00 0.00 0.00 0.00 0.00 0.01
0.21 0.23 0.20 0.13 0.08 0.05 0.03 0.02 0.01 0.01 0.01 0.02 0.02 0.03 0.02 0.02 0.01 0.01 0.01 0.01 0.00 0.00 0.00 0.00 0.00 0.00 0.00 0.00 0.00 0.00 0.00 0.00 0.00 0.00 0.00 0.00 0.00 0.00 0.00 0.00 0.00 0.00 0.00
0.42 0.30 0.17 0.09 0.04 0.02 0.01 0.01 0.01 0.01 0.01 0.01 0.01 0.01 0.01 0.01 0.01 0.01 0.00 0.00 0.00 0.00 0.00 0.00 0.00 0.00 0.00 0.00 0.00 0.00 0.00 0.00 0.00 0.00 0.00 0.00 0.00 0.00 0.00 0.00 0.00 0.00 0.00
0.19 0.10 0.05 0.02 0.01 0.01 0.00 0.00 0.00 0.01 0.00 0.00 0.01 0.01 0.01 0.01 0.01 0.01 0.00 0.00 0.00 0.01 0.00 0.00 0.00 0.00 0.00 0.00 0.00 0.00 0.00 0.00 0.00 0.00 0.00 0.00 0.00 0.00 0.00 0.00 0.00 0.00 0.00
0.08 0.04 0.02 0.01 0.01 0.00 0.00 0.00 0.00 0.00 0.00 0.00 0.01 0.01 0.01 0.01 0.01 0.01 0.01 0.00 0.00 0.00 0.00 0.00 0.00 0.00 0.00 0.00 0.00 0.00 0.00 0.00 0.00 0.00 0.00 0.00 0.00 0.01 0.02 0.02 0.02 0.02 0.02
0.05 0.03 0.02 0.01 0.01 0.00 0.00 0.00 0.01 0.01 0.01 0.02 0.02 0.02 0.01 0.02 0.01 0.01 0.01 0.01 0.01 0.00 0.00 0.00 0.00 0.00 0.00 0.00 0.00 0.00 0.00 0.00 0.00 0.00 0.00 0.00 0.00 0.00 0.01 0.02 0.03 0.05 0.05
0.03 0.02 0.01 0.01 0.01 0.01 0.01 0.02 0.02 0.03 0.03 0.03 0.03 0.03 0.03 0.02 0.02 0.01 0.01 0.01 0.00 0.00 0.00 0.00 0.00 0.00 0.00 0.00 0.00 0.00 0.00 0.00 0.00 0.00 0.00 0.00 0.00 0.00 0.01 0.01 0.02 0.02 0.03
0.01 0.01 0.01 0.01 0.01 0.01 0.02 0.03 0.04 0.05 0.06 0.06 0.05 0.04 0.03 0.03 0.02 0.01 0.00 0.00 0.00 0.00 0.00 0.00 0.00 0.00 0.00 0.00 0.00 0.00 0.00 0.00 0.00 0.00 0.00 0.00 0.00 0.01 0.01 0.01 0.01 0.01 0.01
0.01 0.01 0.01 0.01 0.02 0.03 0.04 0.04 0.06 0.07 0.07 0.06 0.04 0.03 0.02 0.01 0.01 0.00 0.00 0.00 0.00 0.00 0.00 0.00 0.00 0.00 0.00 0.00 0.00 0.00 0.00 0.00 0.00 0.00 0.00 0.00 0.00 0.01 0.02 0.02 0.01 0.01 0.01
0.01 0.01 0.01 0.02 0.02 0.03 0.03 0.04 0.05 0.05 0.04 0.03 0.01 0.01 0.00 0.00 0.00 0.00 0.00 0.00 0.00 0.00 0.00 0.00 0.00 0.00 0.00 0.00 0.00 0.00 0.00 0.00 0.00 0.00 0.00 0.01 0.01 0.02 0.02 0.02 0.02 0.02 0.02
0.01 0.01 0.01 0.02 0.02 0.03 0.03 0.03 0.03 0.02 0.01 0.01 0.00 0.00 0.00 0.00 0.00 0.00 0.00 0.00 0.00 0.00 0.00 0.00 0.00 0.00 0.00 0.00 0.00 0.00 0.00 0.00 0.00 0.00 0.01 0.01 0.02 0.02 0.02 0.02 0.02 0.03 0.03
0.01 0.01 0.01 0.02 0.02 0.02 0.02 0.01 0.01 0.00 0.00 0.00 0.00 0.00 0.00 0.00 0.00 0.00 0.00 0.00 0.00 0.00 0.00 0.00 0.00 0.00 0.00 0.00 0.00 0.00 0.00 0.00 0.00 0.01 0.01 0.02 0.02 0.02 0.02 0.02 0.02 0.03 0.03
0.01 0.01 0.01 0.01 0.01 0.01 0.01 0.00 0.00 0.00 0.00 0.00 0.00 0.00 0.00 0.00 0.00 0.00 0.00 0.00 0.00 0.00 0.00 0.00 0.00 0.00 0.00 0.00 0.00 0.00 0.00 0.00 0.00 0.01 0.02 0.02 0.02 0.02 0.02 0.02 0.02 0.02 0.02
0.00 0.00 0.01 0.01 0.00 0.00 0.00 0.00 0.00 0.00 0.00 0.00 0.00 0.01 0.01 0.00 0.00 0.00 0.00 0.00 0.00 0.00 0.00 0.00 0.00 0.00 0.00 0.00 0.00 0.00 0.00 0.00 0.00 0.01 0.02 0.02 0.02 0.01 0.01 0.02 0.01 0.01 0.02
0.01 0.01 0.01 0.00 0.00 0.00 0.00 0.00 0.00 0.00 0.00 0.00 0.01 0.01 0.01 0.00 0.00 0.00 0.00 0.00 0.00 0.00 0.00 0.00 0.00 0.00 0.00 0.00 0.00 0.00 0.00 0.00 0.01 0.01 0.01 0.01 0.01 0.01 0.01 0.01 0.01 0.01 0.02
0.01 0.01 0.00 0.00 0.00 0.00 0.00 0.00 0.00 0.00 0.00 0.00 0.00 0.00 0.00 0.00 0.00 0.00 0.00 0.00 0.00 0.00 0.00 0.00 0.00 0.00 0.00 0.00 0.00 0.00 0.00 0.00 0.01 0.01 0.01 0.02 0.02 0.03 0.02 0.02 0.02 0.02 0.03
MSLP
1006.08 1006.11 1006.20 1006.35 1006.53 1006.78 1007.11 1007.53 1008.08 1008.75 1009.52 1010.35 1011.20 1012.02 1012.77 1013.41 1013.94 1014.39 1014.77 1015.14 1015.52 1015.94 1016.41 1016.92 1017.44 1017.93 1018.37 1018.73 1018.99 1019.17 1019.28 1019.35 1019.40 1019.45 1019.51 1019.56 1019.59 1019.56 1019.47 1019.30 1019.06 1018.76 1018.46
1005.35 1005.47 1005.65 1005.86 1006.09 1006.36 1006.69 1007.13 1007.71 1008.45 1009.31 1010.27 1011.27 1012.23 1013.10 1013.84 1014.44 1014.91 1015.30 1015.65 1016.01 1016.42 1016.89 1017.41 1017.95 1018.46 1018.91 1019.27 1019.53 1019.68 1019.77 1019.83 1019.87 1019.93 1020.00 1020.08 1020.15 1020.16 1020.09 1019.93 1019.69 1019.40 1019.07
1004.72 1004.96 1005.26 1005.58 1005.89 1006.22 1006.60 1007.07 1007.69 1008.48 1009.42 1010.47 1011.56 1012.61 1013.56 1014.36 1014.99 1015.47 1015.85 1016.18 1016.52 1016.91 1017.36 1017.88 1018.41 1018.92 1019.36 1019.71 1019.94 1020.08 1020.15 1020.19 1020.23 1020.30 1020.40 1020.51 1020.61 1020.66 1020.63 1020.50 1020.28 1019.98 1019.65
1004.38 1004.75 1005.19 1005.64 1006.06 1006.47 1006.90 1007.41 1008.06 1008.87 1009.84 1010.91 1012.03 1013.11 1014.09 1014.90 1015.52 1015.99 1016.35 1016.65 1016.96 1017.32 1017.75 1018.24 1018.76 1019.25 1019.68 1020.01 1020.22 1020.34 1020.39 1020.42 1020.46 1020.53 1020.65 1020.79 1020.93 1021.01 1021.01 1020.91 1020.71 1020.41 1020.07
1004.48 1004.98 1005.56 1006.13 1006.66 1007.14 1007.62 1008.16 1008.80 1009.59 1010.52 1011.55 1012.63 1013.67 1014.60 1015.37 1015.96 1016.40 1016.72 1016.99 1017.27 1017.60 1018.01 1018.48 1018.98 1019.46 1019.86 1020.17 1020.37 1020.47 1020.51 1020.53 1020.56 1020.64 1020.76 1020.92 1021.07 1021.17 1021.18 1021.09 1020.90 1020.61 1020.26
1005.10 1005.70 1006.40 1007.07 1007.68 1008.22 1008.72 1009.24 1009.83 1010.55 1011.38 1012.32 1013.29 1014.23 1015.07 1015.76 1016.28 1016.67 1016.95 1017.19 1017.44 1017.76 1018.15 1018.60 1019.08 1019.54 1019.94 1020.23 1020.42 1020.51 1020.54 1020.55 1020.57 1020.64 1020.75 1020.89 1021.03 1021.12 1021.13 1021.03 1020.83 1020.53 1020.17
1006.20 1006.89 1007.66 1008.40 1009.06 1009.61 1010.09 1010.56 1011.07 1011.66 1012.36 1013.14 1013.96 1014.75 1015.46 1016.05 1016.49 1016.82 1017.06 1017.28 1017.52 1017.83 1018.21 1018.65 1019.12 1019.56 1019.95 1020.23 1020.41 1020.49 1020.52 1020.51 1020.52 1020.56 1020.65 1020.75 1020.85 1020.91 1020.88 1020.76 1020.53 1020.22 1019.85
1007.68 1008.41 1009.21 1009.97 1010.63 1011.16 1011.60 1011.98 1012.37 1012.82 1013.36 1013.96 1014.60 1015.24 1015.81 1016.28 1016.65 1016.92 1017.13 1017.34 1017.57 1017.88 1018.25 1018.69 1019.14 1019.58 1019.95 1020.22 1020.39 1020.47 1020.49 1020.47 1020.46 1020.46 1020.50 1020.55 1020.59 1020.58 1020.51 1020.34 1020.09 1019.76 1019.37
1009.33 1010.08 1010.87 1011.61 1012.23 1012.71 1013.07 1013.36 1013.63 1013.94 1014.31 1014.75 1015.22 1015.70 1016.14 1016.52 1016.81 1017.04 1017.24 1017.44 1017.68 1017.98 1018.36 1018.78 1019.22 1019.64 1019.99 1020.25 1020.42 1020.49 1020.49 1020.46 1020.41 1020.37 1020.35 1020.33 1020.30 1020.22 1020.08 1019.86 1019.57 1019.22 1018.84
1010.97 1011.70 1012.46 1013.14 1013.70 1014.11 1014.39 1014.58 1014.75 1014.94 1015.18 1015.48 1015.82 1016.18 1016.52 1016.81 1017.06 1017.26 1017.45 1017.66 1017.90 1018.21 1018.57 1018.98 1019.40 1019.78 1020.11 1020.35 1020.50 1020.56 1020.55 1020.49 1020.41 1020.33 1020.24 1020.14 1020.03 1019.87 1019.66 1019.40 1019.07 1018.71 1018.32
1012.43 1013.13 1013.82 1014.43 1014.91 1015.25 1015.46 1015.59 1015.69 1015.80 1015.96 1016.16 1016.42 1016.69 1016.97 1017.22 1017.44 1017.64 1017.83 1018.04 1018.29 1018.59 1018.94 1019.31 1019.69 1020.04 1020.33 1020.54 1020.66 1020.69 1020.66 1020.58 1020.46 1020.32 1020.17 1020.00 1019.80 1019.57 1019.29 1018.97 1018.62 1018.24 1017.86
1013.65 1014.29 1014.91 1015.44 1015.85 1016.12 1016.29 1016.39 1016.45 1016.53 1016.65 1016.82 1017.04 1017.27 1017.52 1017.75 1017.96 1018.17 1018.37 1018.59 1018.84 1019.12 1019.44 1019.77 1020.09 1020.38 1020.62 1020.78 1020.87 1020.87 1020.81 1020.69 1020.54 1020.35 1020.13 1019.88 1019.61 1019.30 1018.96 1018.59 1018.20 1017.81 1017.42
1014.64 1015.22 1015.76 1016.21 1016.55 1016.78 1016.93 1017.02 1017.09 1017.18 1017.30 1017.47 1017.68 1017.91 1018.15 1018.38 1018.60 1018.82 1019.03 1019.25 1019.49 1019.75 1020.02 1020.30 1020.56 1020.78 1020.96 1021.06 1021.10 1021.06 1020.96 1020.81 1020.61 1020.37 1020.08 1019.77 1019.41 1019.03 1018.62 1018.20 1017.77 1017.36 1016.96
1015.47 1015.98 1016.44 1016.82 1017.11 1017.31 1017.45 1017.56 1017.66 1017.78 1017.94 1018.13 1018.36 1018.60 1018.84 1019.08 1019.31 1019.53 1019.74 1019.96 1020.18 1020.41 1020.63 1020.85 1021.04 1021.19 1021.29 1021.33 1021.31 1021.22 1021.08 1020.88 1020.64 1020.34 1020.00 1019.61 1019.18 1018.72 1018.24 1017.76 1017.29 1016.84 1016.43
1016.24 1016.68 1017.06 1017.37 1017.61 1017.80 1017.94 1018.08 1018.22 1018.38 1018.58 1018.80 1019.04 1019.29 1019.55 1019.79 1020.02 1020.24 1020.44 1020.65 1020.84 1021.03 1021.21 1021.36 1021.48 1021.55 1021.58 1021.55 1021.46 1021.32 1021.13 1020.88 1020.58 1020.23 1019.83 1019.37 1018.87 1018.34 1017.79 1017.24 1016.72 1016.23 1015.78
1017.03 1017.40 1017.71 1017.95 1018.15 1018.32 1018.47 1018.63 1018.81 1019.01 1019.23 1019.47 1019.72 1019.97 1020.22 1020.45 1020.67 1020.88 1021.07 1021.25 1021.42 1021.57 1021.70 1021.79 1021.84 1021.84 1021.78 1021.68 1021.53 1021.33 1021.09 1020.79 1020.44 1020.04 1019.57 1019.05 1018.49 1017.88 1017.27 1016.66 1016.08 1015.54 1015.05
1017.87 1018.17 1018.41 1018.60 1018.76 1018.91 1019.07 1019.24 1019.44 1019.65 1019.89 1020.13 1020.37 1020.60 1020.83 1021.04 1021.23 1021.42 1021.59 1021.75 1021.89 1022.01 1022.08 1022.12 1022.10 1022.03 1021.91 1021.74 1021.52 1021.26 1020.96 1020.61 1020.21 1019.76 1019.24 1018.67 1018.05 1017.39 1016.72 1016.05 1015.41 1014.82 1014.29
1018.76 1018.99 1019.17 1019.31 1019.43 1019.57 1019.72 1019.89 1020.09 1020.30 1020.52 1020.75 1020.96 1021.16 1021.35 1021.53 1021.70 1021.86 1022.01 1022.15 1022.26 1022.34 1022.37 1022.35 1022.28 1022.14 1021.95 1021.72 1021.44 1021.12 1020.77 1020.37 1019.93 1019.44 1018.88 1018.27 1017.60 1016.90 1016.19 1015.48 1014.80 1014.18 1013.61
1019.63 1019.80 1019.93 1020.03 1020.12 1020.23 1020.37 1020.53 1020.72 1020.92 1021.12 1021.31 1021.49 1021.65 1021.81 1021.95 1022.09 1022.23 1022.36 1022.47 1022.56 1022.60 1022.60 1022.53 1022.40 1022.21 1021.96 1021.66 1021.32 1020.95 1020.55 1020.12 1019.64 1019.11 1018.53 1017.89 1017.21 1016.49 1015.75 1015.02 1014.32 1013.68 1013.09
1020.41 1020.54 1020.63 1020.69 1020.76 1020.86 1020.98 1021.13 1021.30 1021.47 1021.64 1021.80 1021.95 1022.08 1022.20 1022.32 1022.44 1022.55 1022.66 1022.76 1022.82 1022.84 1022.80 1022.69 1022.51 1022.26 1021.96 1021.60 1021.21 1020.80 1020.35 1019.88 1019.37 1018.83 1018.24 1017.59 1016.90 1016.18 1015.44 1014.71 1014.01 1013.36 1012.78
1021.04 1021.15 1021.20 1021.25 1021.31 1021.39 1021.50 1021.63 1021.78 1021.93 1022.08 1022.21 1022.33 1022.44 1022.55 1022.65 1022.75 1022.86 1022.96 1023.04 1023.09 1023.08 1023.01 1022.86 1022.64 1022.34 1021.98 1021.58 1021.14 1020.68 1020.20 1019.70 1019.18 1018.62 1018.03 1017.39 1016.71 1016.00 1015.28 1014.57 1013.88 1013.24 1012.67
1021.50 1021.59 1021.64 1021.68 1021.72 1021.80 1021.90 1022.02 1022.15 1022.29 1022.42 1022.54 1022.65 1022.75 1022.85 1022.95 1023.06 1023.17 1023.26 1023.33 1023.36 1023.34 1023.24 1023.05 1022.79 1022.45 1022.05 1021.61 1021.13 1020.64 1020.13 1019.61 1019.07 1018.51 1017.92 1017.29 1016.63 1015.94 1015.24 1014.55 1013.89 1013.27 1012.71
1021.80 1021.88 1021.92 1021.96 1022.01 1022.08 1022.17 1022.28 1022.41 1022.54 1022.66 1022.78 1022.89 1023.00 1023.11 1023.22 1023.34 1023.46 1023.55 1023.62 1023.64 1023.60 1023.47 1023.26 1022.96 1022.59 1022.16 1021.69 1021.18 1020.66 1020.13 1019.60 1019.05 1018.48 1017.89 1017.28 1016.63 1015.97 1015.29 1014.63 1013.99 1013.39 1012.85
1021.95 1022.03 1022.09 1022.13 1022.18 1022.24 1022.33 1022.44 1022.55 1022.68 1022.80 1022.93 1023.05 1023.18 1023.31 1023.44 1023.58 1023.70 1023.80 1023.87 1023.88 1023.82 1023.68 1023.44 1023.13 1022.74 1022.29 1021.79 1021.27 1020.74 1020.20 1019.66 1019.11 1018.54 1017.95 1017.34 1016.71 1016.06 1015.40 1014.75 1014.13 1013.55 1013.01
1022.01 1022.10 1022.16 1022.21 1022.26 1022.32 1022.40 1022.50 1022.61 1022.73 1022.86 1022.99 1023.13 1023.28 1023.43 1023.58 1023.73 1023.87 1023.97 1024.04 1024.04 1023.97 1023.82 1023.57 1023.25 1022.85 1022.40 1021.91 1021.39 1020.86 1020.32 1019.78 1019.22 1018.66 1018.08 1017.47 1016.84 1016.20 1015.55 1014.91 1014.29 1013.72 1013.19
1022.03 1022.13 1022.19 1022.24 1022.29 1022.34 1022.41 1022.49 1022.59 1022.71 1022.84 1022.97 1023.13 1023.29 1023.45 1023.62 1023.79 1023.93 1024.04 1024.10 1024.10 1024.02 1023.86 1023.62 1023.30 1022.91 1022.47 1022.00 1021.50 1020.99 1020.46 1019.94 1019.40 1018.84 1018.26 1017.66 1017.03 1016.39 1015.75 1015.11 1014.49 1013.92 1013.38
Thickness
5814 5811 5807 5803 5797 5793 5790 5788 5783 5777 5769 5760 5752 5742 5733 5728 5723 5717 5712 5707 5703 5698 5692 5685 5680 5676 5671 5666 5664 5659 5655 5651 5650 5648 5645 5644 5641 5638 5633 5629 5625 5622 5618
5804 5803 5801 5797 5794 5790 5787 5782 5777 5771 5763 5755 5745 5734 5724 5715 5708 5703 5699 5694 5690 5686 5681 5675 5668 5664 5659 5654 5650 5647 5641 5637 5635 5632 5627 5623 5624 5622 5620 5614 5610 5606 5602
5804 5802 5798 5794 5789 5784 5780 5774 5766 5757 5750 5743 5733 5721 5711 5704 5696 5690 5683 5679 5675 5672 5668 5663 5657 5652 5647 5641 5636 5633 5629 5623 5619 5617 5613 5606 5603 5601 5603 5599 5594 5589 5585
5804 5801 5797 5790 5785 5778 5771 5764 5757 5747 5738 5729 5720 5708 5699 5691 5684 5679 5673 5668 5663 5658 5654 5650 5645 5640 5634 5629 5624 5619 5616 5612 5605 5601 5597 5593 5588 5583 5581 5580 5576 5572 5567
5798 5795 5791 5785 5777 5768 5760 5754 5747 5736 5727 5716 5706 5697 5688 5681 5675 5670 5665 5659 5653 5649 5644 5638 5633 5627 5621 5616 5611 5607 5603 5599 5593 5587 5582 5577 5572 5567 5561 5558 5557 5555 5552
5789 5784 5779 5772 5763 5756 5748 5740 5732 5723 5715 5706 5695 5688 5680 5674 5668 5663 5657 5651 5644 5638 5633 5627 5621 5615 5609 5604 5599 5595 5591 5586 5581 5575 5569 5563 5557 5551 5545 5541 5539 5537 5537
5769 5764 5758 5752 5745 5738 5731 5724 5718 5709 5704 5694 5686 5680 5675 5670 5664 5657 5651 5643 5635 5627 5621 5615 5609 5603 5597 5592 5587 5583 5578 5573 5568 5562 5556 5550 5544 5539 5532 5527 5525 5522 5521
5747 5742 5737 5731 5724 5717 5710 5705 5699 5693 5688 5682 5675 5669 5664 5659 5653 5647 5641 5633 5625 5617 5610 5604 5597 5591 5586 5581 5576 5570 5566 5561 5555 5550 5544 5538 5532 5527 5520 5514 5510 5508 5507
5725 5721 5716 5711 5704 5697 5690 5685 5681 5676 5672 5667 5663 5657 5651 5645 5639 5633 5627 5619 5611 5604 5598 5592 5585 5580 5574 5569 5563 5557 5552 5547 5541 5535 5530 5524 5519 5513 5507 5500 5493 5488 5492
5707 5702 5697 5692 5686 5681 5673 5668 5663 5659 5656 5652 5648 5642 5636 5630 5624 5618 5611 5604 5597 5591 5585 5579 5573 5567 5561 5554 5548 5541 5536 5530 5524 5519 5514 5509 5504 5498 5491 5485 5477 5470 5467
5690 5686 5681 5678 5673 5668 5662 5655 5648 5642 5640 5636 5632 5626 5620 5615 5609 5603 5596 5589 5583 5577 5571 5565 5558 5551 5544 5537 5530 5524 5518 5512 5506 5501 5497 5492 5487 5481 5474 5468 5461 5454 5446
5674 5669 5665 5662 5658 5654 5648 5645 5637 5629 5626 5623 5618 5612 5606 5601 5594 5588 5581 5575 5568 5562 5555 5549 5541 5533 5525 5518 5512 5507 5501 5496 5490 5485 5480 5475 5471 5465 5458 5452 5445 5438 5430
5655 5651 5647 5644 5641 5637 5634 5630 5624 5618 5613 5608 5603 5596 5590 5585 5578 5571 5565 5559 5552 5545 5539 5531 5523 5514 5507 5501 5496 5490 5485 5479 5474 5470 5465 5460 5454 5450 5444 5438 5431 5424 5419
5639 5633 5629 5626 5623 5620 5617 5612 5607 5603 5597 5591 5585 5578 5572 5566 5560 5553 5547 5541 5534 5527 5520 5513 5505 5498 5492 5486 5480 5475 5470 5465 5460 5456 5451 5446 5442 5437 5433 5428 5421 5415 5409
5626 5618 5612 5608 5606 5602 5598 5593 5588 5584 5579 5573 5566 5559 5554 5548 5541 5534 5527 5521 5514 5508 5502 5496 5489 5483 5477 5472 5466 5461 5457 5451 5446 5443 5440 5435 5432 5429 5424 5420 5414 5409 5405
5612 5604 5598 5593 5589 5585 5579 5575 5569 5564 5559 5552 5546 5540 5535 5528 5521 5514 5507 5501 5496 5490 5485 5480 5474 5468 5464 5458 5453 5448 5442 5438 5434 5431 5429 5425 5423 5420 5416 5413 5409 5406 5403
5595 5587 5580 5575 5570 5565 5561 5556 5550 5545 5539 5533 5527 5521 5515 5508 5502 5496 5489 5483 5478 5473 5469 5464 5459 5454 5449 5444 5439 5435 5430 5426 5423 5421 5418 5417 5415 5413 5410 5408 5407 5405 5403
5575 5567 5561 5555 5550 5546 5542 5537 5532 5526 5520 5514 5508 5502 5496 5490 5484 5478 5472 5467 5463 5458 5454 5450 5445 5440 5436 5432 5427 5422 5418 5415 5413 5411 5410 5409 5409 5409 5406 5406 5407 5407 5406
5555 5549 5544 5539 5534 5530 5525 5520 5514 5508 5503 5497 5491 5486 5480 5473 5468 5462 5457 5453 5448 5444 5440 5436 5431 5427 5423 5419 5415 5411 5407 5405 5404 5405 5405 5405 5405 5405 5404 5405 5407 5408 5409
5539 5534 5529 5525 5520 5515 5510 5504 5498 5493 5487 5482 5477 5471 5465 5459 5453 5448 5444 5440 5435 5430 5427 5423 5418 5414 5410 5407 5404 5401 5398 5397 5398 5400 5401 5402 5402 5403 5403 5404 5407 5409 5410
5524 5520 5515 5510 5505 5500 5495 5489 5484 5478 5474 5469 5463 5458 5452 5446 5440 5435 5430 5426 5422 5417 5413 5409 5405 5402 5399 5397 5396 5394 5391 5391 5393 5396 5398 5400 5401 5402 5404 5405 5407 5408 5410
5510 5506 5501 5496 5492 5487 5482 5477 5471 5467 5462 5457 5450 5444 5438 5434 5429 5423 5418 5414 5409 5404 5399 5395 5393 5391 5390 5389 5388 5388 5388 5388 5389 5393 5396 5398 5401 5403 5405 5407 5409 5410 5412
5497 5493 5488 5484 5480 5476 5471 5466 5462 5458 5452 5445 5437 5432 5427 5422 5417 5411 5406 5401 5396 5391 5387 5385 5383 5382 5383 5382 5382 5383 5385 5386 5388 5391 5395 5398 5401 5404 5407 5409 5411 5412 5412
5486 5482 5478 5473 5469 5466 5462 5457 5454 5449 5442 5434 5427 5421 5415 5410 5405 5400 5395 5390 5385 5382 5379 5377 5376 5376 5376 5376 5377 5378 5380 5383 5387 5391 5395 5399 5402 5405 5408 5410 5411 5412 5412
5477 5473 5468 5464 5460 5457 5453 5450 5446 5441 5433 5426 5418 5412 5406 5400 5395 5391 5387 5383 5380 5377 5374 5372 5370 5370 5371 5371 5372 5373 5377 5380 5384 5389 5394 5398 5401 5405 5407 5410 5412 5414 5415
5470 5466 5462 5457 5453 5450 5445 5441 5437 5432 5424 5416 5409 5402 5396 5392 5387 5383 5381 5379 5377 5375 5373 5371 5369 5368 5368 5369 5371 5374 5377 5380 5384 5389 5392 5396 5400 5404 5407 5409 5412 5414 5416